Tracking 29892 objects as of 21-Nov-2024
HD Live streaming from Space Station
objects crossing your sky now

STARLINK-30205

Track STARLINK-30205 now!
10-day predictions
STARLINK-30205 is classified as:


NORAD ID: 57408
Int'l Code: 2023-102E
Perigee: 565.6 km
Apogee: 566.8 km
Inclination: 43.0 °
Period: 95.8 minutes
Semi major axis: 6937 km
RCS: Unknown
Launch date: July 20, 2023
Source: United States (US)
Launch site: AIR FORCE WESTERN TEST RANGE (AFWTR)
Your satellite tracking list
Your tracking list is empty




NASA's NSSDC Master Catalog

Two Line Element Set (TLE):
1 57408U 23102E   24325.95261424 -.00000014  00000-0  14044-4 0  9994
2 57408  43.0035 303.0654 0000821 226.1789 133.8985 15.02538545 74970
Source of the keplerian elements: AFSPC